Temp
-9 -8 -8 -8 -8 -8 -8 -8 -8 -8 -8 -8 -8 -9 -9 -9 -9 -9 -9 -9 -9 -9 -9 -8 -8 -8 -8 -8 -8 -8 -8 -8 -9 -9 -8 -8 -8 -8 -8 -8 -8 -8 -8
-9 -8 -8 -8 -8 -8 -8 -8 -8 -8 -8 -8 -8 -8 -9 -9 -9 -9 -9 -9 -9 -9 -9 -9 -9 -9 -8 -8 -8 -9 -9 -8 -8 -8 -8 -8 -8 -8 -8 -8 -8 -8 -8
-9 -9 -9 -9 -8 -8 -8 -8 -8 -8 -8 -8 -8 -8 -8 -9 -9 -9 -9 -9 -9 -9 -9 -9 -9 -9 -9 -9 -9 -8 -8 -8 -8 -8 -8 -8 -8 -8 -8 -8 -8 -8 -8
-9 -9 -9 -9 -8 -8 -8 -8 -8 -8 -8 -8 -8 -8 -8 -8 -8 -8 -8 -9 -9 -9 -9 -8 -9 -9 -8 -8 -8 -8 -8 -8 -8 -8 -8 -8 -8 -8 -8 -8 -8 -9 -9
-10 -9 -9 -8 -8 -8 -8 -8 -8 -8 -8 -8 -8 -8 -8 -8 -8 -8 -8 -8 -8 -8 -8 -8 -8 -9 -8 -8 -8 -9 -9 -9 -9 -9 -9 -9 -9 -9 -9 -9 -9 -9 -9
-10 -10 -9 -8 -8 -8 -8 -8 -8 -8 -8 -8 -8 -7 -7 -8 -7 -7 -7 -7 -7 -8 -8 -8 -8 -8 -8 -9 -9 -9 -9 -9 -9 -9 -9 -9 -9 -9 -9 -9 -9 -9 -9
-10 -9 -9 -9 -8 -8 -8 -8 -8 -8 -8 -8 -8 -7 -7 -7 -7 -7 -7 -7 -7 -7 -7 -7 -7 -8 -8 -8 -9 -9 -9 -9 -10 -10 -9 -9 -9 -10 -10 -9 -10 -10 -10
-10 -10 -9 -9 -8 -8 -8 -8 -8 -7 -7 -7 -7 -7 -7 -7 -7 -7 -7 -7 -7 -7 -8 -8 -8 -8 -9 -9 -9 -9 -9 -9 -10 -10 -10 -10 -10 -10 -10 -10 -11 -11 -11
-10 -9 -9 -8 -8 -8 -8 -8 -8 -8 -7 -7 -7 -7 -7 -7 -7 -7 -7 -7 -8 -8 -7 -8 -8 -8 -9 -9 -10 -10 -10 -10 -10 -10 -10 -10 -10 -10 -10 -10 -11 -11 -11
-9 -9 -8 -8 -8 -8 -7 -8 -7 -8 -8 -8 -8 -8 -8 -8 -8 -8 -7 -7 -8 -8 -8 -8 -8 -8 -9 -10 -10 -11 -11 -11 -11 -11 -11 -11 -11 -11 -12 -12 -12 -12 -12
-9 -9 -8 -8 -8 -8 -8 -8 -8 -8 -8 -8 -8 -8 -8 -9 -8 -9 -9 -8 -8 -8 -8 -8 -9 -9 -10 -11 -11 -11 -12 -12 -12 -12 -12 -12 -12 -12 -12 -12 -12 -12 -12
-9 -8 -8 -8 -8 -8 -8 -8 -8 -8 -9 -9 -9 -9 -8 -9 -9 -9 -9 -9 -10 -9 -9 -9 -10 -10 -11 -12 -12 -12 -12 -13 -13 -13 -13 -12 -12 -13 -13 -13 -13 -13 -13
-8 -8 -8 -8 -8 -8 -8 -8 -8 -9 -9 -9 -9 -9 -10 -10 -10 -10 -10 -10 -11 -11 -11 -11 -11 -11 -12 -12 -13 -13 -13 -13 -13 -13 -13 -13 -13 -13 -13 -13 -13 -13 -13
-9 -8 -8 -8 -8 -8 -9 -8 -9 -9 -10 -10 -10 -10 -10 -10 -10 -11 -11 -11 -11 -12 -11 -12 -12 -13 -13 -13 -13 -13 -13 -13 -13 -13 -13 -13 -13 -13 -13 -13 -13 -13 -13
-9 -9 -9 -9 -8 -8 -9 -9 -10 -11 -11 -10 -11 -11 -10 -10 -11 -11 -11 -11 -12 -12 -12 -13 -13 -13 -13 -13 -13 -13 -13 -13 -13 -13 -13 -13 -13 -13 -13 -13 -13 -13 -14
-9 -9 -9 -9 -9 -10 -10 -10 -11 -11 -11 -11 -11 -11 -11 -11 -12 -12 -12 -12 -13 -13 -13 -13 -14 -14 -13 -13 -14 -14 -14 -14 -14 -14 -14 -14 -14 -14 -14 -14 -15 -16 -16
-9 -9 -9 -9 -11 -11 -11 -11 -11 -11 -11 -11 -12 -12 -12 -12 -12 -12 -13 -13 -14 -14 -14 -14 -14 -14 -14 -14 -14 -14 -14 -14 -14 -14 -14 -14 -14 -15 -15 -16 -16 -17 -18
-9 -9 -9 -10 -11 -12 -12 -12 -12 -11 -11 -12 -12 -13 -13 -13 -13 -14 -14 -14 -14 -14 -14 -14 -14 -14 -14 -15 -14 -15 -15 -15 -14 -15 -15 -15 -15 -16 -17 -17 -18 -18 -19
-10 -10 -11 -12 -12 -12 -12 -12 -12 -12 -13 -13 -13 -13 -13 -14 -14 -14 -15 -15 -15 -14 -14 -15 -15 -15 -15 -15 -15 -15 -15 -15 -15 -16 -16 -16 -17 -18 -18 -18 -18 -19 -19
-12 -12 -12 -12 -12 -12 -12 -13 -13 -13 -13 -13 -13 -14 -15 -15 -14 -15 -15 -15 -15 -16 -16 -15 -16 -15 -15 -15 -15 -15 -15 -16 -16 -16 -17 -17 -18 -19 -19 -19 -19 -20 -20
-13 -13 -12 -12 -12 -13 -13 -13 -14 -14 -15 -15 -15 -15 -15 -15 -15 -15 -16 -16 -16 -16 -16 -16 -16 -16 -15 -15 -16 -16 -16 -16 -17 -17 -18 -19 -19 -19 -19 -20 -20 -20 -20
-13 -13 -13 -13 -13 -13 -13 -14 -14 -15 -15 -15 -15 -15 -15 -15 -16 -16 -16 -17 -18 -17 -16 -16 -16 -16 -16 -16 -16 -16 -16 -17 -18 -18 -19 -20 -20 -20 -20 -20 -21 -21 -21
-14 -14 -14 -14 -14 -14 -15 -15 -15 -15 -15 -15 -15 -15 -16 -16 -17 -17 -18 -18 -17 -17 -17 -17 -16 -16 -16 -16 -16 -17 -17 -18 -19 -19 -20 -20 -20 -21 -21 -21 -21 -22 -22
-15 -15 -15 -15 -15 -15 -15 -16 -16 -16 -16 -16 -16 -17 -17 -18 -18 -18 -17 -17 -18 -17 -17 -16 -16 -16 -16 -17 -17 -18 -18 -19 -20 -20 -20 -21 -21 -21 -21 -22 -22 -22 -22
-16 -16 -16 -16 -16 -16 -16 -16 -16 -16 -17 -17 -17 -18 -18 -18 -18 -18 -18 -17 -17 -17 -17 -17 -17 -17 -17 -17 -18 -19 -20 -20 -20 -21 -21 -21 -21 -21 -22 -22 -22 -23 -23
-16 -16 -16 -16 -17 -17 -17 -17 -17 -17 -17 -17 -17 -17 -17 -17 -18 -17 -17 -17 -17 -17 -17 -17 -17 -17 -18 -18 -19 -20 -20 -21 -21 -21 -21 -21 -21 -22 -22 -22 -22 -23 -23
Height
5860 5859 5857 5856 5853 5850 5847 5844 5840 5838 5836 5832 5829 5825 5824 5825 5825 5825 5826 5827 5828 5830 5831 5833 5834 5836 5837 5839 5840 5841 5842 5843 5842 5842 5842 5843 5843 5844 5844 5844 5844 5845 5845
5858 5856 5855 5854 5851 5849 5845 5842 5839 5836 5834 5831 5829 5827 5826 5825 5825 5825 5825 5825 5826 5827 5826 5828 5830 5831 5833 5834 5835 5836 5835 5834 5835 5835 5835 5835 5835 5835 5836 5836 5835 5835 5836
5855 5853 5852 5851 5848 5847 5843 5841 5838 5836 5833 5831 5830 5828 5827 5826 5826 5825 5825 5825 5825 5825 5825 5825 5826 5828 5829 5829 5829 5828 5828 5828 5828 5828 5828 5827 5827 5826 5825 5825 5826 5826 5826
5853 5851 5850 5850 5847 5844 5842 5840 5838 5836 5834 5831 5830 5829 5827 5827 5826 5825 5824 5824 5823 5822 5820 5821 5822 5822 5821 5822 5822 5820 5820 5821 5821 5820 5821 5820 5819 5817 5817 5818 5817 5816 5816
5849 5850 5847 5845 5844 5843 5841 5839 5837 5835 5834 5832 5830 5829 5827 5826 5826 5825 5824 5822 5821 5820 5819 5819 5819 5818 5818 5818 5817 5816 5815 5815 5815 5814 5814 5813 5813 5811 5810 5809 5808 5807 5805
5848 5846 5843 5840 5840 5839 5838 5836 5835 5834 5833 5832 5830 5828 5827 5825 5823 5822 5821 5819 5817 5817 5816 5816 5816 5816 5815 5814 5813 5813 5812 5811 5810 5809 5808 5807 5805 5803 5801 5800 5799 5798 5797
5845 5843 5842 5838 5836 5836 5835 5834 5833 5831 5831 5830 5828 5826 5825 5824 5822 5821 5819 5818 5816 5814 5813 5812 5812 5811 5810 5809 5809 5808 5806 5805 5804 5803 5800 5799 5798 5796 5795 5793 5791 5790 5788
5843 5841 5839 5836 5834 5833 5832 5833 5831 5829 5828 5827 5826 5825 5823 5821 5820 5819 5817 5815 5814 5812 5810 5808 5807 5805 5804 5803 5802 5801 5800 5799 5797 5795 5793 5791 5789 5789 5786 5784 5782 5780 5779
5838 5836 5835 5833 5831 5831 5830 5829 5828 5827 5825 5825 5824 5822 5820 5818 5816 5815 5813 5811 5809 5808 5806 5805 5802 5799 5798 5796 5795 5794 5793 5792 5789 5788 5786 5784 5782 5780 5778 5775 5773 5771 5769
5833 5831 5830 5828 5827 5826 5825 5824 5824 5823 5822 5821 5819 5818 5816 5814 5812 5810 5809 5807 5804 5802 5800 5798 5796 5793 5791 5789 5788 5786 5784 5783 5781 5779 5777 5775 5773 5771 5768 5766 5763 5762 5760
5828 5827 5826 5824 5823 5822 5821 5819 5817 5817 5816 5814 5813 5812 5811 5809 5806 5804 5802 5800 5798 5797 5793 5790 5788 5786 5783 5781 5780 5778 5776 5775 5773 5772 5770 5767 5765 5762 5760 5758 5756 5753 5751
5825 5824 5822 5820 5818 5817 5815 5814 5812 5810 5809 5808 5806 5804 5803 5801 5800 5797 5794 5792 5791 5789 5786 5782 5779 5778 5776 5773 5771 5770 5768 5767 5766 5765 5763 5760 5757 5755 5752 5750 5747 5744 5741
5819 5817 5815 5814 5812 5811 5809 5807 5804 5803 5802 5800 5798 5796 5795 5794 5791 5789 5786 5785 5783 5780 5778 5775 5771 5770 5768 5766 5765 5763 5762 5760 5759 5757 5754 5752 5749 5746 5742 5739 5736 5732 5728
5812 5810 5808 5807 5805 5803 5801 5799 5796 5796 5793 5792 5790 5790 5787 5785 5783 5781 5779 5776 5774 5772 5769 5766 5764 5762 5761 5759 5758 5757 5755 5753 5751 5749 5746 5742 5739 5736 5732 5728 5723 5718 5713
5805 5803 5800 5798 5797 5795 5792 5790 5789 5788 5786 5785 5782 5780 5778 5775 5774 5771 5769 5765 5764 5763 5760 5757 5757 5755 5754 5753 5751 5749 5748 5745 5743 5740 5737 5733 5729 5725 5720 5714 5709 5703 5697
5797 5795 5793 5791 5789 5786 5784 5783 5782 5779 5778 5775 5774 5772 5769 5767 5765 5763 5761 5757 5756 5754 5752 5750 5748 5747 5747 5745 5743 5742 5739 5737 5734 5730 5726 5722 5717 5711 5706 5700 5693 5686 5679
5790 5787 5785 5783 5780 5779 5778 5776 5774 5772 5770 5767 5765 5763 5760 5758 5756 5754 5751 5749 5747 5745 5744 5743 5741 5740 5739 5738 5735 5734 5731 5728 5724 5720 5716 5710 5704 5698 5692 5685 5679 5672 5666
5782 5779 5776 5774 5772 5770 5768 5766 5764 5762 5759 5757 5755 5752 5750 5748 5746 5745 5743 5742 5740 5738 5736 5736 5734 5732 5730 5729 5727 5724 5721 5718 5714 5709 5704 5698 5692 5686 5680 5674 5668 5662 5656
5772 5769 5766 5764 5763 5761 5759 5756 5754 5752 5749 5747 5745 5742 5740 5739 5736 5735 5734 5732 5731 5730 5728 5727 5725 5723 5721 5719 5717 5713 5710 5707 5702 5697 5692 5686 5680 5675 5670 5665 5659 5653 5648
5761 5759 5757 5755 5753 5751 5748 5746 5744 5742 5739 5736 5734 5733 5731 5729 5727 5725 5724 5721 5721 5720 5718 5717 5715 5713 5711 5709 5706 5703 5699 5695 5691 5686 5681 5676 5671 5666 5661 5656 5651 5646 5641
5753 5751 5749 5747 5744 5742 5739 5737 5735 5732 5730 5728 5725 5723 5721 5719 5717 5715 5713 5711 5709 5710 5707 5705 5705 5704 5702 5699 5696 5692 5688 5684 5680 5675 5671 5667 5662 5658 5653 5649 5644 5639 5634
5744 5742 5740 5738 5735 5733 5730 5727 5725 5723 5721 5719 5716 5714 5711 5709 5705 5703 5701 5699 5698 5698 5698 5696 5696 5694 5692 5689 5685 5681 5677 5673 5669 5665 5662 5658 5654 5650 5646 5642 5638 5634 5630
5735 5733 5731 5728 5726 5723 5721 5719 5716 5713 5710 5708 5705 5702 5700 5698 5695 5693 5692 5692 5690 5690 5689 5687 5686 5684 5681 5677 5673 5669 5666 5662 5659 5655 5652 5649 5646 5643 5640 5636 5632 5629 5626
5725 5724 5721 5719 5716 5714 5711 5709 5706 5703 5700 5697 5695 5692 5691 5689 5688 5687 5685 5684 5681 5680 5678 5677 5675 5672 5669 5665 5661 5658 5654 5652 5649 5646 5643 5641 5638 5635 5632 5629 5626 5624 5621
5718 5715 5713 5710 5707 5705 5702 5699 5696 5693 5690 5688 5686 5684 5682 5680 5679 5678 5676 5674 5672 5669 5668 5666 5663 5661 5657 5653 5649 5646 5643 5641 5639 5637 5635 5632 5630 5627 5624 5622 5619 5617 5615
5710 5708 5705 5702 5699 5697 5694 5691 5689 5686 5683 5679 5677 5675 5673 5672 5669 5668 5665 5663 5660 5658 5656 5654 5650 5647 5644 5640 5637 5634 5633 5631 5629 5627 5625 5623 5621 5618 5616 5614 5612 5610 5608
Wind_Speed
10 10 11 14 16 15 14 12 10 10 11 5 12 12 7 4 3 3 7 12 16 18 21 25 28 28 26 24 24 25 26 28 30 31 34 33 31 31 26 30 37 36 35
7 7 8 10 15 15 15 14 10 9 10 14 10 10 11 7 4 3 4 7 10 13 15 20 24 25 26 27 28 27 27 28 27 25 28 31 33 32 33 34 34 39 35
8 9 10 11 12 12 11 14 11 8 9 9 10 11 10 8 7 4 2 5 7 10 13 14 17 19 22 24 26 26 31 27 26 28 29 31 32 33 35 34 36 40 42
8 10 11 13 13 12 10 11 10 8 9 9 8 9 9 9 8 6 6 8 7 12 12 16 20 22 19 26 28 22 23 23 26 30 28 30 28 29 30 33 38 39 43
8 12 13 15 11 12 14 11 9 8 9 9 9 8 8 8 8 9 9 9 9 9 8 8 12 15 16 18 19 20 21 20 23 22 22 24 28 30 32 32 35 38 37
11 14 15 17 14 12 11 15 11 10 10 10 9 9 10 9 8 9 10 10 10 12 12 13 13 14 15 18 21 23 24 27 26 25 30 31 31 31 31 30 33 33 35
13 15 16 15 16 15 11 14 12 11 13 14 12 12 12 12 11 10 10 11 11 11 12 13 16 17 18 20 22 23 24 23 25 29 30 29 29 30 31 34 35 36 36
15 17 18 17 18 17 16 14 15 13 12 13 14 13 13 13 13 14 13 14 15 17 18 19 21 22 23 24 24 24 26 26 27 29 31 32 33 32 33 35 36 36 37
20 19 19 17 20 21 19 18 18 17 15 17 17 17 18 18 18 18 19 18 18 21 24 27 28 28 27 26 25 25 25 26 26 27 29 31 33 33 34 36 36 36 36
21 21 22 21 20 21 22 20 22 23 22 22 22 22 23 22 23 23 25 25 23 25 28 29 29 30 30 29 26 27 28 27 29 30 32 32 32 30 29 29 29 30 31
20 20 21 21 23 23 22 23 25 26 27 27 27 27 27 26 25 26 27 27 27 28 30 32 32 30 28 28 28 28 28 29 31 28 26 25 26 25 27 28 31 33 35
21 22 24 23 24 25 26 25 26 28 30 31 32 33 31 27 26 27 29 29 33 35 35 32 29 29 28 27 27 27 25 24 22 23 24 25 27 29 31 33 35 38 40
27 29 28 27 27 26 25 25 27 29 30 31 33 30 31 32 37 34 33 34 36 36 33 31 28 27 25 22 22 21 21 22 24 25 28 31 33 35 37 40 43 46 48
25 24 22 25 27 28 27 27 29 30 30 33 34 34 35 32 39 44 39 38 42 35 33 28 26 23 22 21 21 22 23 25 28 31 33 36 38 41 43 45 48 51 54
25 24 26 28 30 31 29 27 28 28 30 33 32 30 38 39 43 43 43 42 35 30 31 27 23 21 22 23 22 23 27 29 32 35 38 40 42 44 47 49 52 54 54
28 28 29 32 33 33 31 30 31 29 31 31 32 31 39 40 39 40 40 35 33 29 25 23 22 22 24 24 25 28 29 33 36 38 40 43 45 47 50 50 50 50 49
31 31 34 36 33 31 30 32 32 34 35 35 35 35 35 36 36 37 35 31 27 25 24 24 24 24 24 27 28 31 33 35 38 41 43 44 46 48 48 48 47 44 42
37 37 39 39 34 33 33 33 34 36 36 35 35 35 35 35 34 32 30 28 27 27 26 27 25 24 27 30 32 33 35 38 41 42 43 45 46 46 46 43 40 38 36
41 42 37 33 34 34 34 35 36 36 35 35 35 35 34 32 31 30 30 30 30 30 28 27 26 31 32 31 32 34 37 40 42 43 44 44 44 42 39 35 34 32 30
35 32 30 30 31 32 34 35 35 35 34 33 34 33 30 30 32 34 35 33 34 35 32 33 36 30 30 31 34 37 39 41 42 42 43 41 38 35 32 32 31 28 27
26 28 28 30 32 34 36 36 34 33 33 33 32 32 33 34 34 37 38 40 43 41 36 27 29 28 31 34 37 39 40 41 41 41 39 35 32 30 29 29 28 27 25
30 31 33 34 36 37 36 34 33 35 35 33 32 34 35 35 32 33 34 29 26 24 24 25 29 33 36 37 38 39 40 40 39 37 33 31 29 28 27 27 26 24 23
33 33 33 34 34 35 34 35 35 36 35 36 36 34 33 30 28 23 18 21 22 25 27 30 33 36 37 38 39 40 40 38 35 33 30 28 27 27 26 25 24 22 20
34 34 33 33 32 31 31 34 35 35 35 34 31 29 24 19 15 19 20 23 25 28 31 34 36 38 39 40 40 40 38 33 32 31 30 28 27 26 24 24 23 22 19
28 29 31 33 33 33 32 32 32 32 31 29 27 26 24 22 22 24 27 30 31 33 34 36 37 39 41 42 41 38 34 32 31 30 29 28 27 26 24 23 23 22 21
25 26 29 32 31 29 27 25 27 28 30 28 26 25 26 26 27 30 33 34 35 36 38 39 41 42 42 41 39 36 33 32 31 30 29 27 27 26 25 24 23 23 23
Wind_Direction
291 296 332 341 348 348 358 357 13 4 15 23 23 17 14 351 347 289 259 245 236 235 236 236 241 250 253 257 258 259 263 261 263 266 266 268 272 255 254 256 255 259 259
295 295 306 337 356 350 355 358 9 14 14 38 32 30 28 31 357 311 268 261 251 246 240 238 241 247 250 257 260 266 262 260 261 271 265 264 266 262 260 260 251 254 259
317 325 327 336 354 355 358 359 11 16 17 29 27 36 39 29 27 22 320 273 275 267 255 250 241 244 254 258 263 264 259 266 257 261 260 264 269 267 260 255 255 256 261
313 315 319 331 346 351 350 352 5 21 26 34 31 32 37 33 30 4 335 320 292 283 248 237 240 237 232 253 247 244 261 262 268 269 266 263 267 264 267 271 261 266 266
322 306 319 335 344 357 348 343 343 354 357 0 4 2 3 352 338 322 312 307 305 304 309 285 272 272 268 275 268 269 265 264 272 275 271 270 273 273 277 270 271 281 276
331 313 317 324 336 335 344 337 321 305 323 330 339 347 350 348 340 328 323 321 313 297 296 293 287 280 279 278 276 277 278 277 280 267 286 277 281 281 278 281 279 287 284
335 323 308 311 316 315 336 328 315 307 305 310 323 333 336 339 340 339 332 328 325 315 306 294 289 289 288 287 284 282 283 284 283 285 288 288 287 287 284 284 287 287 287
314 311 308 303 300 305 309 310 299 297 298 304 308 311 314 315 315 314 313 312 311 310 304 296 291 286 284 283 283 285 287 288 287 288 289 291 291 290 290 289 289 289 289
304 299 293 297 299 296 294 297 295 287 285 290 294 299 302 301 301 301 297 297 304 308 307 302 299 297 294 289 284 284 283 283 282 282 285 288 289 290 290 290 289 290 290
298 296 293 295 291 291 287 283 282 281 281 287 290 295 299 300 298 298 298 295 298 303 304 302 299 297 293 289 285 282 287 287 291 294 296 295 295 295 293 292 290 291 291
301 295 296 299 292 287 287 283 277 277 276 277 280 287 290 290 291 287 286 292 295 299 298 299 298 298 295 289 288 287 287 289 294 293 292 292 294 294 294 294 295 295 294
294 290 296 300 298 294 288 286 282 280 281 283 284 285 284 283 286 297 298 297 303 302 299 301 304 302 298 294 294 293 295 294 290 291 294 295 295 296 296 297 297 296 295
295 290 289 290 292 289 287 285 283 281 279 279 279 280 280 290 292 292 289 291 296 304 303 303 303 301 296 292 290 288 288 293 298 299 299 299 300 301 301 300 299 299 299
306 306 299 290 292 292 292 289 284 280 280 279 281 281 272 280 286 299 293 292 289 295 301 302 298 291 289 288 288 290 294 297 300 301 301 300 301 301 302 302 303 304 304
300 303 304 305 300 297 293 288 281 278 276 277 278 273 268 282 285 292 297 300 306 299 298 296 288 286 284 288 290 294 298 300 300 300 300 302 303 304 307 308 308 307 304
304 304 306 302 298 295 288 283 281 278 278 277 279 273 274 282 288 289 292 297 299 296 290 283 282 284 286 287 292 296 298 299 300 304 306 307 309 311 312 310 307 307 307
301 300 302 300 295 286 278 278 278 278 279 281 280 281 284 289 292 294 296 296 293 289 285 282 284 285 285 291 295 295 299 303 306 308 309 312 314 313 311 310 309 309 309
296 291 292 292 286 278 275 276 278 278 278 278 280 282 283 286 288 292 292 289 285 281 281 281 281 283 293 293 292 298 304 307 308 310 314 315 312 310 309 311 312 312 312
290 287 286 281 278 276 276 276 274 276 280 282 283 285 285 286 288 289 285 281 280 280 280 277 283 286 286 290 297 304 306 308 311 314 314 311 308 308 311 312 315 315 316
287 281 279 277 276 277 278 280 282 284 284 284 283 282 282 285 288 285 279 278 277 274 273 280 285 285 288 296 301 305 307 310 313 312 310 307 307 310 312 317 320 322 323
277 277 275 276 277 279 282 283 283 282 285 285 282 280 280 280 282 279 276 278 270 267 278 280 281 289 296 299 303 305 309 310 309 308 306 304 308 312 315 320 324 327 330
276 277 278 280 282 283 284 284 282 283 283 284 282 283 282 282 280 279 278 280 283 283 284 287 290 291 297 301 303 306 308 306 305 304 302 303 308 312 314 319 324 327 332
275 279 284 286 288 287 285 286 285 286 285 285 285 287 287 285 278 275 276 278 282 284 284 288 295 297 300 302 304 305 304 302 301 300 297 299 304 309 312 315 318 320 325
279 283 286 289 291 292 291 289 289 286 285 284 282 285 287 284 279 286 285 286 287 293 296 296 296 298 300 302 302 301 299 298 295 294 292 293 297 302 307 309 311 310 311
289 289 285 290 291 290 291 291 290 287 285 285 285 281 284 273 281 287 288 291 293 293 293 294 296 298 299 300 298 297 295 292 291 291 289 290 292 294 297 299 300 301 299
287 290 294 295 296 293 295 301 300 298 294 285 286 293 294 294 295 294 292 291 291 292 293 294 296 297 297 296 294 292 288 286 286 286 286 286 288 289 288 289 291 292 291